Flag for Germany Weather past 2 weeks in Leutkirch im Allgäu, Baden-Württemberg, Germany

Now
46 °F

Overcast.


Feels Like: 46 °F
Forecast: 46 / 66 °F
Wind: 1 mph from Northeast

Location: Kempten

Current Time: May 23, 2015 at 7:53:58 AM

Latest Report: May 23, 2015 at 7:00 AM


Visibility: 10 mi

Pressure: 30.11 "Hg

Humidity: 83%

Dew point: 40 °F

Location of Leutkirch im AllgäuLocation

Historic Weather in Leutkirch im Allgäu — Graph

°F

Leutkirch im Allgäu temperature yesterday

Maximum temperature yesterday: 53 °F (at 3:00 PM)
Minimum temperature yesterday: 42 °F (at 6:00 AM)
Average temperature yesterday: 47 °F

Past Weeks' High & Low Weather Summary

 TemperatureHumidityPressure
High79 °F (May 12, 5:00 PM)99% (May 16, 7:00 AM)30.39 "Hg (May 16, 7:00 AM)
Low40 °F (May 21, 6:00 AM)22% (May 11, 6:00 PM)29.70 "Hg (May 18, 7:00 PM)
Average55 °F74%30.08 "Hg
* Reported May 8 4:00 AM — May 23 4:00 AM, Leutkirch im Allgäu, Weather by CustomWeather, © 2015

Note: Actual official high and low records may vary slightly from our data, if they occured in-between our weather recording intervals... More about our weather records

Advertising

Leutkirch im Allgäu weather history for previous 24 hours

 ConditionsComfort  
Time TempWeatherWind HumidityBarometerVisibility
4:00 AM
Sat, May 23
44 °FOvercast.1 mph90%30.13 "Hg7 mi
3:00 AM45 °FOvercast.1 mph86%30.14 "Hg10 mi
2:00 AM45 °FOvercast.1 mph89%30.16 "Hg5 mi
1:00 AM45 °FOvercast.1 mph85%30.17 "Hg10 mi
12:00 AM47 °FOvercast.1 mph78%30.18 "Hg12 mi
10:00 PM
Fri, May 22
47 °FPassing clouds.1 mph86%30.20 "Hg6 mi
9:00 PM48 °FOvercast.No wind85%30.19 "Hg9 mi
8:00 PM49 °FOvercast.1 mph76%30.19 "Hg11 mi
7:00 PM50 °FScattered clouds.2 mph69%30.19 "Hg11 mi
6:00 PM51 °FOvercast.2 mph73%30.19 "Hg10 mi
5:00 PM50 °FOvercast.2 mph75%30.19 "Hg8 mi
4:00 PM51 °FOvercast.3 mph73%30.21 "Hg9 mi
3:00 PM53 °FPartly sunny.5 mph64%30.21 "Hg10 mi
2:00 PM53 °FOvercast.2 mph68%30.23 "Hg9 mi
1:00 PM50 °FOvercast.5 mph75%30.25 "Hg7 mi
12:00 PM50 °FOvercast.2 mph74%30.26 "Hg8 mi
10:00 AM47 °FOvercast.2 mph85%30.29 "Hg6 mi
9:00 AM46 °FLow clouds.1 mph90%30.29 "Hg5 mi
8:00 AM44 °FFog.1 mph95%30.30 "Hg4 mi
7:00 AM43 °FFog.1 mph98%30.31 "Hg2 mi
Weather by CustomWeather, © 2015

See weather overviewHow to use our weather pages